Meteo orario Abdulnasyrovo

Oggi, 20 Giugno, Domenica

Tempo Temperatura Precipitazioni Vento Pressione Umidità
00:00 +15°C° 0 mm 4 m/s 728 mm Hg 80%
01:00 +14°C° 0 mm 4 m/s 727 mm Hg 83%
02:00 +14°C° 0 mm 5 m/s 727 mm Hg 83%
03:00 +15°C° 0 mm 5 m/s 727 mm Hg 82%
04:00 +15°C° 0 mm 6 m/s 727 mm Hg 81%
05:00 +17°C° 0 mm 6 m/s 726 mm Hg 77%
06:00 +18°C° 0 mm 7 m/s 726 mm Hg 72%
07:00 +21°C° 0 mm 7 m/s 726 mm Hg 68%
08:00 +23°C° 0 mm 8 m/s 726 mm Hg 62%
09:00 +26°C° 0 mm 8 m/s 726 mm Hg 55%
10:00 +27°C° 0 mm 8 m/s 726 mm Hg 49%
11:00 +28°C° 0 mm 8 m/s 726 mm Hg 47%
12:00 +28°C° 0 mm 8 m/s 726 mm Hg 45%
13:00 +28°C° 0 mm 9 m/s 726 mm Hg 43%
14:00 +28°C° 0 mm 9 m/s 726 mm Hg 43%
15:00 +29°C° 0 mm 9 m/s 726 mm Hg 44%
16:00 +29°C° 0 mm 10 m/s 726 mm Hg 44%
17:00 +27°C° 0 mm 9 m/s 726 mm Hg 45%
18:00 +26°C° 0 mm 8 m/s 726 mm Hg 47%
19:00 +24°C° 0 mm 8 m/s 726 mm Hg 48%
20:00 +22°C° 0 mm 7 m/s 726 mm Hg 51%
21:00 +20°C° 0 mm 6 m/s 727 mm Hg 53%
22:00 +17°C° 0 mm 5 m/s 727 mm Hg 55%
23:00 +17°C° 0 mm 4 m/s 727 mm Hg 56%

Domani, 21 Giugno, Lunedi

Tempo Temperatura Precipitazioni Vento Pressione Umidità
00:00 +14°C° 0 mm 3 m/s 728 mm Hg 57%
01:00 +13°C° 0 mm 3 m/s 728 mm Hg 58%
02:00 +12°C° 0 mm 3 m/s 728 mm Hg 60%
03:00 +12°C° 0 mm 2 m/s 728 mm Hg 62%
04:00 +12°C° 0 mm 2 m/s 729 mm Hg 65%
05:00 +13°C° 0 mm 2 m/s 729 mm Hg 59%
06:00 +14°C° 0 mm 3 m/s 729 mm Hg 54%
07:00 +17°C° 0 mm 3 m/s 730 mm Hg 48%
08:00 +18°C° 0 mm 4 m/s 730 mm Hg 41%
09:00 +19°C° 0 mm 4 m/s 730 mm Hg 35%
10:00 +21°C° 0 mm 4 m/s 731 mm Hg 28%
11:00 +22°C° 0 mm 4 m/s 731 mm Hg 28%
12:00 +22°C° 0 mm 4 m/s 731 mm Hg 27%
13:00 +23°C° 0 mm 4 m/s 731 mm Hg 26%
14:00 +25°C° 0 mm 4 m/s 731 mm Hg 26%
15:00 +25°C° 0 mm 4 m/s 731 mm Hg 27%
16:00 +25°C° 0 mm 4 m/s 730 mm Hg 28%
17:00 +25°C° 0 mm 3 m/s 730 mm Hg 32%
18:00 +24°C° 0 mm 2 m/s 730 mm Hg 37%
19:00 +23°C° 0 mm 2 m/s 730 mm Hg 42%
20:00 +21°C° 0 mm 1 m/s 730 mm Hg 43%
21:00 +20°C° 0 mm 1 m/s 730 mm Hg 44%
22:00 +18°C° 0 mm 1 m/s 730 mm Hg 45%
23:00 +18°C° 0 mm 1 m/s 730 mm Hg 47%

Dopodomani, 22 Giugno, Martedi

Tempo Temperatura Precipitazioni Vento Pressione Umidità
00:00 +17°C° 0 mm 2 m/s 730 mm Hg 49%
01:00 +17°C° 0 mm 2 m/s 730 mm Hg 51%
02:00 +16°C° 0 mm 2 m/s 729 mm Hg 57%
03:00 +16°C° 0 mm 2 m/s 729 mm Hg 63%
04:00 +16°C° 0 mm 3 m/s 729 mm Hg 68%
05:00 +17°C° 0.1 mm 4 m/s 729 mm Hg 68%
06:00 +19°C° 0.1 mm 5 m/s 729 mm Hg 67%
07:00 +21°C° 0.1 mm 6 m/s 729 mm Hg 67%
08:00 +23°C° 0 mm 6 m/s 729 mm Hg 61%
09:00 +26°C° 0 mm 6 m/s 729 mm Hg 54%
10:00 +28°C° 0 mm 6 m/s 729 mm Hg 48%
11:00 +29°C° 0 mm 6 m/s 729 mm Hg 45%
12:00 +30°C° 0 mm 6 m/s 729 mm Hg 42%
13:00 +32°C° 0 mm 6 m/s 729 mm Hg 39%
14:00 +30°C° 0 mm 6 m/s 729 mm Hg 40%
15:00 +30°C° 0 mm 6 m/s 729 mm Hg 42%
16:00 +30°C° 0 mm 6 m/s 729 mm Hg 43%
17:00 +29°C° 0 mm 5 m/s 729 mm Hg 47%
18:00 +28°C° 0 mm 5 m/s 728 mm Hg 51%
19:00 +27°C° 0 mm 4 m/s 728 mm Hg 56%
20:00 +25°C° 0 mm 4 m/s 728 mm Hg 62%
21:00 +23°C° 0 mm 4 m/s 728 mm Hg 69%
22:00 +21°C° 0 mm 4 m/s 728 mm Hg 75%
23:00 +21°C° 0 mm 4 m/s 728 mm Hg 76%

23 Giugno, Mercoledi

Tempo Temperatura Precipitazioni Vento Pressione Umidità
00:00 +20°C° 0 mm 4 m/s 728 mm Hg 76%
01:00 +20°C° 0 mm 4 m/s 728 mm Hg 76%
02:00 +20°C° 0 mm 4 m/s 728 mm Hg 77%
03:00 +20°C° 0 mm 4 m/s 728 mm Hg 78%
04:00 +20°C° 0 mm 4 m/s 727 mm Hg 78%
05:00 +21°C° 0 mm 4 m/s 728 mm Hg 72%
06:00 +23°C° 0 mm 5 m/s 728 mm Hg 67%
07:00 +25°C° 0 mm 5 m/s 728 mm Hg 61%
08:00 +27°C° 0 mm 5 m/s 728 mm Hg 54%
09:00 +28°C° 0 mm 6 m/s 728 mm Hg 47%
10:00 +30°C° 0 mm 6 m/s 728 mm Hg 40%
11:00 +30°C° 0 mm 5 m/s 728 mm Hg 38%
12:00 +32°C° 0 mm 5 m/s 728 mm Hg 36%
13:00 +32°C° 0 mm 4 m/s 728 mm Hg 34%
14:00 +28°C° 0.2 mm 5 m/s 728 mm Hg 48%
15:00 +24°C° 0.2 mm 6 m/s 728 mm Hg 63%
16:00 +21°C° 0.2 mm 7 m/s 728 mm Hg 78%
17:00 +21°C° 0.2 mm 6 m/s 728 mm Hg 77%
18:00 +21°C° 0.2 mm 4 m/s 728 mm Hg 77%
19:00 +21°C° 0.2 mm 3 m/s 729 mm Hg 76%
20:00 +20°C° 0.3 mm 2 m/s 729 mm Hg 82%
21:00 +20°C° 0.3 mm 1 m/s 729 mm Hg 87%
22:00 +19°C° 0.3 mm 1 m/s 729 mm Hg 93%
23:00 +18°C° 0 mm 1 m/s 728 mm Hg 93%

24 Giugno, Giovedi

Tempo Temperatura Precipitazioni Vento Pressione Umidità
00:00 +18°C° 0 mm 1 m/s 728 mm Hg 93%
01:00 +18°C° 0 mm 1 m/s 728 mm Hg 93%
02:00 +16°C° 0 mm 1 m/s 728 mm Hg 93%
03:00 +16°C° 0 mm 1 m/s 728 mm Hg 93%
04:00 +16°C° 0 mm 1 m/s 728 mm Hg 93%
05:00 +18°C° 0 mm 1 m/s 728 mm Hg 88%
06:00 +18°C° 0 mm 2 m/s 728 mm Hg 84%
07:00 +20°C° 0 mm 2 m/s 728 mm Hg 79%
08:00 +21°C° 0 mm 2 m/s 728 mm Hg 73%
09:00 +24°C° 0 mm 2 m/s 728 mm Hg 67%
10:00 +26°C° 0 mm 2 m/s 728 mm Hg 62%
11:00 +26°C° 0.5 mm 2 m/s 728 mm Hg 59%
12:00 +27°C° 0.5 mm 2 m/s 727 mm Hg 57%
13:00 +28°C° 0.5 mm 2 m/s 727 mm Hg 54%
14:00 +28°C° 0.2 mm 3 m/s 727 mm Hg 56%
15:00 +28°C° 0.2 mm 4 m/s 727 mm Hg 57%
16:00 +27°C° 0.2 mm 4 m/s 726 mm Hg 59%
17:00 +26°C° 0.7 mm 3 m/s 726 mm Hg 65%
18:00 +25°C° 0.7 mm 2 m/s 726 mm Hg 71%
19:00 +23°C° 0.7 mm 2 m/s 726 mm Hg 77%
20:00 +21°C° 0 mm 2 m/s 726 mm Hg 80%
21:00 +20°C° 0 mm 2 m/s 725 mm Hg 83%
22:00 +19°C° 0 mm 3 m/s 725 mm Hg 86%
23:00 +19°C° 0 mm 3 m/s 725 mm Hg 86%

25 Giugno, Venerdi

Tempo Temperatura Precipitazioni Vento Pressione Umidità
00:00 +19°C° 0 mm 3 m/s 724 mm Hg 85%
01:00 +18°C° 0 mm 2 m/s 724 mm Hg 85%
02:00 +18°C° 0 mm 3 m/s 724 mm Hg 86%
03:00 +18°C° 0 mm 3 m/s 723 mm Hg 87%
04:00 +18°C° 0 mm 3 m/s 723 mm Hg 88%
05:00 +19°C° 0 mm 4 m/s 723 mm Hg 84%
06:00 +20°C° 0 mm 4 m/s 723 mm Hg 79%
07:00 +21°C° 0 mm 5 m/s 723 mm Hg 75%
08:00 +23°C° 0 mm 5 m/s 722 mm Hg 67%
09:00 +26°C° 0 mm 6 m/s 722 mm Hg 60%
10:00 +28°C° 0 mm 7 m/s 722 mm Hg 53%
11:00 +28°C° 0 mm 7 m/s 722 mm Hg 52%
12:00 +29°C° 0 mm 7 m/s 722 mm Hg 50%
13:00 +29°C° 0 mm 7 m/s 721 mm Hg 49%
14:00 +29°C° 0 mm 8 m/s 721 mm Hg 50%
15:00 +29°C° 0 mm 8 m/s 721 mm Hg 51%
16:00 +29°C° 0 mm 9 m/s 720 mm Hg 53%
17:00 +28°C° 0 mm 8 m/s 720 mm Hg 56%
18:00 +27°C° 0 mm 7 m/s 720 mm Hg 59%
19:00 +27°C° 0 mm 6 m/s 720 mm Hg 63%
20:00 +25°C° 0.1 mm 5 m/s 720 mm Hg 70%
21:00 +22°C° 0.1 mm 5 m/s 721 mm Hg 77%
22:00 +21°C° 0.1 mm 4 m/s 721 mm Hg 83%
23:00 +20°C° 0 mm 5 m/s 721 mm Hg 83%
Mostrare altro

Abbiamo bisogno del tuo consenso

Meteoprog e i nostri fornitori di servizi possono memorizzare e accedere a dati personali come cookie, identificatori di dispositivi o altre tecnologie simili sul tuo dispositivo e possono elaborare tali dati per personalizzare i contenuti e gli annunci, nonché fornire funzionalità dei social media e analizzarne il traffico.

  • Archiviare e/o accedere alle informazioni sul tuo dispositivo

    Cookie, identificatori di dispositivi o altre informazioni possono essere memorizzati o resi accessibili sul tuo dispositivo per le finalità sopra indicate.

  • Annunci e contenuti personalizzati, misurazione di annunci e contenuti, approfondimenti sul pubblico e sviluppo di prodotti

    Gli annunci e i contenuti possono essere personalizzati in base a un profilo. È possibile aggiungere più dati per personalizzare meglio annunci e contenuti. È possibile misurare il rendimento degli annunci e dei contenuti. È possibile ricavare informazioni sul pubblico che ha visto gli annunci e i contenuti. Tali dati possono essere utilizzati per sviluppare o migliorare l'esperienza, i sistemi e il software dell'utente.

Cliccando su “Accetto”, acconsenti all'uso di cookie, identificatori di dispositivo, web beacon o altre tecnologie simili. Puoi modificare le impostazioni nel browser del tuo dispositivo.

Per determinati scopi, è possibile fare affidamento su interessi legali, piuttosto che sul consenso. Puoi approfondire questo argomento consultando la nostra Informativa sulla privacy e sui cookie.